Regional Weather Roundup
Issued by NWS Cleveland, OH

Home | Current Version | Previous Version | Text Only | Print | Product List | Glossary On
Versions: 1 2 3 4 5 6 7 8 9 10 11 12 13 14 15 16 17 18 19 20 21 22 23 24 25 26 27 28 29 30 31 32 33 34 35 36 37 38 39 40 41 42 43 44 45 46 47 48 49 50
000
ASUS41 KCLE 261312
RWRCLE
OHIO REGIONAL WEATHER ROUNDUP
NATIONAL WEATHER SERVICE WILMINGTON, OH
800 AM EST SUN FEB 26 2017

NOTE: "FAIR" INDICATES FEW OR NO CLOUDS BELOW 12,000 FEET WITH NO
SIGNIFICANT WEATHER AND/OR OBSTRUCTIONS TO VISIBILITY.

OHZ001>008-015>018-024>027-034-035-043-044-261400-
   NORTHWEST OHIO

CITY           SKY/WX    TMP DP  RH WIND       PRES   REMARKS
DEFIANCE       FAIR      23  17  78 SW7       30.12R WCI  15
FINDLAY        FAIR      25  17  72 SW8       30.12R WCI  16
TOLEDO EXPRESS FAIR      23  20  88 SW8       30.11R WCI  14
TOLEDO EXEC    FAIR      24  20  84 SW7       30.12R WCI  16
LIMA           FAIR      23  20  88 SW3       30.13R
$$

OHZ009>014-019>023-028>033-038-089-261400-
   NORTHEAST OHIO

CITY           SKY/WX    TMP DP  RH WIND       PRES   REMARKS
CLE-HOPKINS    FLURRIES  27  17  66 W10       30.12R WCI  17
CLE-LAKEFRONT  FLURRIES  28  19  69 W16       30.10R WCI  16
CUY CO. ARPT   FLURRIES  27  18  69 W17       30.09R WCI  14
LORAIN-ELYRIA  CLOUDY    25  17  72 W8        30.11R WCI  16
ASHTABULA      LGT SNOW  24  19  81 SW6       30.08R WCI  17
AKRON-CANTON   FLURRIES  26  13  57 NW10      30.09R WCI  16
WOOSTER        CLOUDY    25  13  60 NW10      30.10R WCI  15
MANSFIELD      FAIR      24  15  68 SW6       30.09R WCI  17
YOUNGSTOWN     FLURRIES  25  16  68 W12       30.07R WCI  14
$$

OHZ042-051>053-060>062-070>072-077>081-261400-
  SOUTHWEST OHIO

CITY           SKY/WX    TMP DP  RH WIND       PRES   REMARKS
CINC-COVINGTON FAIR      21  17  84 SW5       30.19R WCI  15
CINC-LUNKEN    FAIR      27  17  66 W5        30.23R WCI  22
HAMILTON       FAIR      21  19  92 CALM      30.21R
DAYTON         FAIR      22  16  78 SW7       30.17R WCI  13
WRIGHT-PAT AFB FAIR      24  17  74 SW6       30.17R WCI  17
DAYTON GENERAL FAIR      24  18  77 SW6       30.17R WCI  17
WILMINGTON     FAIR      24  17  74 W8        30.17R WCI  15
$$

OHZ036-037-039>041-045>050-054>059-063>069-073>076-082>088-261400-
  CENTRAL AND SOUTHEAST OHIO

CITY           SKY/WX    TMP DP  RH WIND       PRES   REMARKS
COLUMBUS       CLOUDY    30  17  58 W7        30.15R WCI  23
OSU AIRPORT    CLOUDY    27  15  61 NW8       30.14R WCI  19
BOLTON FIELD   CLOUDY    27  16  63 W5        30.16R WCI  21
RICKENBACK AFB CLOUDY    28  15  58 W12       30.16R WCI  18
NEWARK         CLOUDY    29  17  61 NW8       30.13R WCI  21
MARION         FAIR      24  17  74 W5        30.13R WCI  18
LANCASTER      CLOUDY    30  17  58 W6        30.15R WCI  24
ZANESVILLE     CLOUDY    29  16  58 W6        30.13R WCI  23
NEW PHILLY     FLURRIES  27  21  78 NW9       30.13R WCI  18
$$




USA.gov is the U.S. government's official web portal to all federal, state and local government web resources and services.